Time,TemperatureF,DewpointF,PressureIn,WindDirection,WindDirectionDegrees,WindSpeedMPH,WindSpeedGustMPH,Humidity,HourlyPrecipIn,Conditions,Clouds,dailyrainin,SoftwareType,DateUTC
2013-02-07 00:12:00,15.7,11.0,30.37,SSW,194,1.0,-999.0,82,-99.99,,,0.00,weatherlink.com 1.10,2013-02-07 05:12:00,
2013-02-07 00:27:00,15.7,11.0,30.36,South,169,0.0,-999.0,82,-99.99,,,0.00,weatherlink.com 1.10,2013-02-07 05:27:00,
2013-02-07 00:42:00,15.6,11.0,30.36,South,169,0.0,-999.0,82,-99.99,,,0.00,weatherlink.com 1.10,2013-02-07 05:42:00,
2013-02-07 00:57:00,15.2,11.0,30.38,South,169,0.0,-999.0,82,-99.99,,,0.00,weatherlink.com 1.10,2013-02-07 05:57:00,
2013-02-07 01:12:00,15.3,11.0,30.38,SSE,168,0.0,-999.0,83,-99.99,,,0.00,weatherlink.com 1.10,2013-02-07 06:12:00,
2013-02-07 01:26:00,15.2,11.0,30.39,SSE,167,0.0,-999.0,83,-99.99,,,0.00,weatherlink.com 1.10,2013-02-07 06:26:00,
2013-02-07 01:41:00,15.5,11.0,30.39,SSE,149,0.0,-999.0,83,-99.99,,,0.00,weatherlink.com 1.10,2013-02-07 06:41:00,
2013-02-07 01:56:00,16.0,12.0,30.39,SSE,149,1.0,-999.0,83,-99.99,,,0.00,weatherlink.com 1.10,2013-02-07 06:56:00,
2013-02-07 02:11:00,16.0,12.0,30.39,SSE,148,1.0,-999.0,83,-99.99,,,0.00,weatherlink.com 1.10,2013-02-07 07:11:00,
2013-02-07 02:26:00,16.1,12.0,30.39,SSE,148,1.0,-999.0,83,-99.99,,,0.00,weatherlink.com 1.10,2013-02-07 07:26:00,
2013-02-07 02:41:00,16.4,12.0,30.39,SE,124,1.0,-999.0,83,-99.99,,,0.00,weatherlink.com 1.10,2013-02-07 07:41:00,
2013-02-07 02:56:00,16.9,12.0,30.39,SE,125,1.0,-999.0,82,-99.99,,,0.00,weatherlink.com 1.10,2013-02-07 07:56:00,
2013-02-07 03:11:00,17.0,12.0,30.39,East,95,0.0,-999.0,81,-99.99,,,0.00,weatherlink.com 1.10,2013-02-07 08:11:00,
2013-02-07 03:26:00,17.2,12.0,30.39,East,99,1.0,-999.0,81,-99.99,,,0.00,weatherlink.com 1.10,2013-02-07 08:26:00,
2013-02-07 03:41:00,17.2,12.0,30.39,East,98,2.0,-999.0,81,-99.99,,,0.00,weatherlink.com 1.10,2013-02-07 08:41:00,
2013-02-07 03:56:00,17.1,12.0,30.39,East,94,2.0,-999.0,81,-99.99,,,0.00,weatherlink.com 1.10,2013-02-07 08:56:00,
2013-02-07 04:11:00,16.9,12.0,30.39,ESE,113,3.0,-999.0,81,-99.99,,,0.00,weatherlink.com 1.10,2013-02-07 09:11:00,
2013-02-07 04:26:00,17.0,12.0,30.40,East,96,0.0,-999.0,81,-99.99,,,0.00,weatherlink.com 1.10,2013-02-07 09:26:00,
2013-02-07 04:41:00,17.0,12.0,30.40,East,91,2.0,-999.0,81,-99.99,,,0.00,weatherlink.com 1.10,2013-02-07 09:41:00,
2013-02-07 04:56:00,16.9,12.0,30.40,East,86,1.0,-999.0,81,-99.99,,,0.00,weatherlink.com 1.10,2013-02-07 09:56:00,
2013-02-07 05:11:00,16.7,12.0,30.40,SE,131,2.0,-999.0,81,-99.99,,,0.00,weatherlink.com 1.10,2013-02-07 10:11:00,
2013-02-07 05:26:00,16.2,11.0,30.40,ESE,105,2.0,-999.0,81,-99.99,,,0.00,weatherlink.com 1.10,2013-02-07 10:26:00,
2013-02-07 05:41:00,15.8,11.0,30.40,ESE,115,3.0,-999.0,82,-99.99,,,0.00,weatherlink.com 1.10,2013-02-07 10:41:00,
2013-02-07 05:56:00,15.6,12.0,30.41,ESE,115,0.0,-999.0,84,-99.99,,,0.00,weatherlink.com 1.10,2013-02-07 10:56:00,
2013-02-07 06:11:00,15.7,12.0,30.40,East,99,2.0,-999.0,84,-99.99,,,0.00,weatherlink.com 1.10,2013-02-07 11:11:00,
2013-02-07 06:26:00,15.8,12.0,30.40,ESE,105,0.0,-999.0,84,-99.99,,,0.00,weatherlink.com 1.10,2013-02-07 11:26:00,
2013-02-07 06:41:00,15.8,14.0,30.39,ESE,103,0.0,-999.0,92,-99.99,,,0.00,weatherlink.com 1.10,2013-02-07 11:41:00,
2013-02-07 06:56:00,15.8,14.0,30.39,ESE,103,1.0,-999.0,92,-99.99,,,0.00,weatherlink.com 1.10,2013-02-07 11:56:00,
2013-02-07 07:11:00,16.0,12.0,30.40,ESE,109,1.0,-999.0,84,-99.99,,,0.00,weatherlink.com 1.10,2013-02-07 12:11:00,
2013-02-07 07:26:00,16.1,12.0,30.40,ESE,123,0.0,-999.0,84,-99.99,,,0.00,weatherlink.com 1.10,2013-02-07 12:26:00,
2013-02-07 07:41:00,16.4,12.0,30.42,East,98,1.0,-999.0,84,-99.99,,,0.00,weatherlink.com 1.10,2013-02-07 12:41:00,
2013-02-07 07:56:00,16.7,13.0,30.43,East,98,1.0,-999.0,84,-99.99,,,0.00,weatherlink.com 1.10,2013-02-07 12:56:00,
2013-02-07 08:11:00,17.2,13.0,30.43,East,94,2.0,-999.0,84,-99.99,,,0.00,weatherlink.com 1.10,2013-02-07 13:11:00,
2013-02-07 08:26:00,17.5,13.0,30.43,East,95,3.0,-999.0,83,-99.99,,,0.00,weatherlink.com 1.10,2013-02-07 13:26:00,
2013-02-07 08:41:00,17.9,13.0,30.42,East,80,1.0,-999.0,82,-99.99,,,0.00,weatherlink.com 1.10,2013-02-07 13:41:00,
2013-02-07 08:56:00,18.3,14.0,30.42,East,94,3.0,-999.0,82,-99.99,,,0.00,weatherlink.com 1.10,2013-02-07 13:56:00,
2013-02-07 09:11:00,18.9,14.0,30.43,ENE,78,0.0,-999.0,82,-99.99,,,0.00,weatherlink.com 1.10,2013-02-07 14:11:00,
2013-02-07 09:26:00,19.7,15.0,30.43,East,95,5.0,-999.0,81,-99.99,,,0.00,weatherlink.com 1.10,2013-02-07 14:26:00,
2013-02-07 09:41:00,19.9,15.0,30.42,East,90,2.0,-999.0,80,-99.99,,,0.00,weatherlink.com 1.10,2013-02-07 14:41:00,
2013-02-07 09:56:00,20.7,15.0,30.42,East,101,1.0,-999.0,79,-99.99,,,0.00,weatherlink.com 1.10,2013-02-07 14:56:00,
2013-02-07 10:11:00,21.6,15.0,30.41,East,88,2.0,-999.0,77,-99.99,,,0.00,weatherlink.com 1.10,2013-02-07 15:11:00,
2013-02-07 10:26:00,22.3,16.0,30.41,East,94,5.0,-999.0,76,-99.99,,,0.00,weatherlink.com 1.10,2013-02-07 15:26:00,
2013-02-07 10:41:00,23.1,16.0,30.40,ESE,111,4.0,-999.0,75,-99.99,,,0.00,weatherlink.com 1.10,2013-02-07 15:41:00,
2013-02-07 10:56:00,23.8,17.0,30.40,ESE,103,4.0,-999.0,74,-99.99,,,0.00,weatherlink.com 1.10,2013-02-07 15:56:00,
2013-02-07 11:11:00,24.2,16.0,30.39,East,101,3.0,-999.0,72,-99.99,,,0.00,weatherlink.com 1.10,2013-02-07 16:11:00,
2013-02-07 11:26:00,24.8,17.0,30.39,East,95,1.0,-999.0,71,-99.99,,,0.00,weatherlink.com 1.10,2013-02-07 16:26:00,
2013-02-07 11:41:00,25.1,17.0,30.38,East,98,3.0,-999.0,70,-99.99,,,0.00,weatherlink.com 1.10,2013-02-07 16:41:00,
2013-02-07 11:56:00,26.2,18.0,30.37,ENE,76,3.0,-999.0,70,-99.99,,,0.00,weatherlink.com 1.10,2013-02-07 16:56:00,
2013-02-07 12:11:00,26.1,17.0,30.36,ESE,102,2.0,-999.0,69,-99.99,,,0.00,weatherlink.com 1.10,2013-02-07 17:11:00,
2013-02-07 12:26:00,26.0,17.0,30.35,ESE,115,4.0,-999.0,69,-99.99,,,0.00,weatherlink.com 1.10,2013-02-07 17:26:00,
2013-02-07 12:41:00,26.4,17.0,30.34,ENE,68,3.0,-999.0,69,-99.99,,,0.00,weatherlink.com 1.10,2013-02-07 17:41:00,
2013-02-07 12:56:00,26.5,18.0,30.33,ESE,104,4.0,-999.0,69,-99.99,,,0.00,weatherlink.com 1.10,2013-02-07 17:56:00,
2013-02-07 13:11:00,26.8,18.0,30.32,ENE,75,3.0,-999.0,70,-99.99,,,0.00,weatherlink.com 1.10,2013-02-07 18:11:00,
2013-02-07 13:26:00,27.4,18.0,30.31,ENE,59,5.0,-999.0,69,-99.99,,,0.00,weatherlink.com 1.10,2013-02-07 18:26:00,
2013-02-07 13:41:00,27.6,19.0,30.30,ENE,67,1.0,-999.0,69,-99.99,,,0.00,weatherlink.com 1.10,2013-02-07 18:41:00,
2013-02-07 13:56:00,28.1,19.0,30.30,ENE,67,4.0,-999.0,68,-99.99,,,0.00,weatherlink.com 1.10,2013-02-07 18:56:00,
2013-02-07 14:11:00,28.3,19.0,30.29,East,91,6.0,-999.0,68,-99.99,,,0.00,weatherlink.com 1.10,2013-02-07 19:11:00,
2013-02-07 14:26:00,28.4,19.0,30.28,East,83,4.0,-999.0,67,-99.99,,,0.00,weatherlink.com 1.10,2013-02-07 19:26:00,
2013-02-07 14:41:00,28.8,19.0,30.28,East,87,3.0,-999.0,68,-99.99,,,0.00,weatherlink.com 1.10,2013-02-07 19:41:00,
2013-02-07 14:56:00,29.0,19.0,30.27,ESE,108,4.0,-999.0,67,-99.99,,,0.00,weatherlink.com 1.10,2013-02-07 19:56:00,
2013-02-07 15:11:00,29.1,19.0,30.27,East,82,3.0,-999.0,66,-99.99,,,0.00,weatherlink.com 1.10,2013-02-07 20:11:00,
2013-02-07 15:26:00,29.0,19.0,30.27,ENE,59,2.0,-999.0,66,-99.99,,,0.00,weatherlink.com 1.10,2013-02-07 20:26:00,
2013-02-07 15:41:00,29.0,19.0,30.26,East,88,5.0,-999.0,66,-99.99,,,0.00,weatherlink.com 1.10,2013-02-07 20:41:00,
2013-02-07 15:56:00,28.8,19.0,30.26,ENE,57,2.0,-999.0,66,-99.99,,,0.00,weatherlink.com 1.10,2013-02-07 20:56:00,
2013-02-07 16:12:00,28.8,19.0,30.26,NNE,32,3.0,-999.0,66,-99.99,,,0.00,weatherlink.com 1.10,2013-02-07 21:12:00,
2013-02-07 16:27:00,28.9,19.0,30.26,ENE,63,3.0,-999.0,66,-99.99,,,0.00,weatherlink.com 1.10,2013-02-07 21:27:00,
2013-02-07 16:42:00,28.9,19.0,30.25,ENE,64,4.0,-999.0,66,-99.99,,,0.00,weatherlink.com 1.10,2013-02-07 21:42:00,
2013-02-07 16:57:00,28.8,19.0,30.25,NE,34,2.0,-999.0,66,-99.99,,,0.00,weatherlink.com 1.10,2013-02-07 21:57:00,
2013-02-07 17:12:00,28.9,19.0,30.24,ENE,78,2.0,-999.0,67,-99.99,,,0.00,weatherlink.com 1.10,2013-02-07 22:12:00,
2013-02-07 17:27:00,28.8,19.0,30.24,East,81,5.0,-999.0,67,-99.99,,,0.00,weatherlink.com 1.10,2013-02-07 22:27:00,
2013-02-07 17:42:00,28.7,19.0,30.24,East,91,2.0,-999.0,67,-99.99,,,0.00,weatherlink.com 1.10,2013-02-07 22:42:00,
2013-02-07 17:57:00,28.7,19.0,30.24,ENE,59,2.0,-999.0,67,-99.99,,,0.00,weatherlink.com 1.10,2013-02-07 22:57:00,
2013-02-07 18:12:00,28.7,19.0,30.24,ENE,65,3.0,-999.0,68,-99.99,,,0.00,weatherlink.com 1.10,2013-02-07 23:12:00,
2013-02-07 18:27:00,28.7,19.0,30.24,East,98,1.0,-999.0,68,-99.99,,,0.00,weatherlink.com 1.10,2013-02-07 23:27:00,
2013-02-07 18:42:00,28.7,20.0,30.24,East,80,3.0,-999.0,69,-99.99,,,0.00,weatherlink.com 1.10,2013-02-07 23:42:00,
2013-02-07 18:57:00,28.7,20.0,30.24,ENE,64,3.0,-999.0,69,-99.99,,,0.00,weatherlink.com 1.10,2013-02-07 23:57:00,
2013-02-07 19:12:00,28.7,20.0,30.23,ENE,78,2.0,-999.0,69,-99.99,,,0.00,weatherlink.com 1.10,2013-02-08 00:12:00,
2013-02-07 19:26:00,28.6,20.0,30.23,East,90,3.0,-999.0,70,-99.99,,,0.00,weatherlink.com 1.10,2013-02-08 00:26:00,
2013-02-07 19:41:00,28.8,20.0,30.23,East,84,3.0,-999.0,70,-99.99,,,0.00,weatherlink.com 1.10,2013-02-08 00:41:00,
2013-02-07 19:57:00,28.8,20.0,30.22,East,95,3.0,-999.0,71,-99.99,,,0.00,weatherlink.com 1.10,2013-02-08 00:57:00,
2013-02-07 20:11:00,28.6,21.0,30.22,NE,56,5.0,-999.0,72,-99.99,,,0.00,weatherlink.com 1.10,2013-02-08 01:11:00,
2013-02-07 20:26:00,28.2,21.0,30.21,ENE,65,1.0,-999.0,74,-99.99,,,0.00,weatherlink.com 1.10,2013-02-08 01:26:00,
2013-02-07 20:41:00,27.9,21.0,30.20,ENE,76,1.0,-999.0,74,-99.99,,,0.00,weatherlink.com 1.10,2013-02-08 01:41:00,
2013-02-07 20:56:00,27.0,20.0,30.20,NE,55,4.0,-999.0,74,-99.99,,,0.00,weatherlink.com 1.10,2013-02-08 01:56:00,
2013-02-07 21:12:00,26.5,20.0,30.18,ENE,67,1.0,-999.0,76,-99.99,,,0.00,weatherlink.com 1.10,2013-02-08 02:12:00,
2013-02-07 21:27:00,26.3,20.0,30.16,East,86,8.0,-999.0,78,-99.99,,,0.00,weatherlink.com 1.10,2013-02-08 02:27:00,
2013-02-07 21:42:00,26.2,21.0,30.15,ENE,78,2.0,-999.0,79,-99.99,,,0.00,weatherlink.com 1.10,2013-02-08 02:42:00,
2013-02-07 21:57:00,26.4,21.0,30.14,ENE,60,4.0,-999.0,80,-99.99,,,0.00,weatherlink.com 1.10,2013-02-08 02:57:00,
2013-02-07 22:12:00,26.7,21.0,30.13,East,101,4.0,-999.0,80,-99.99,,,0.00,weatherlink.com 1.10,2013-02-08 03:12:00,
2013-02-07 22:27:00,27.0,21.0,30.11,East,86,2.0,-999.0,79,-99.99,,,0.00,weatherlink.com 1.10,2013-02-08 03:27:00,
2013-02-07 22:42:00,27.4,22.0,30.11,ESE,110,3.0,-999.0,79,-99.99,,,0.00,weatherlink.com 1.10,2013-02-08 03:42:00,
2013-02-07 22:57:00,27.8,22.0,30.11,East,91,2.0,-999.0,79,-99.99,,,0.00,weatherlink.com 1.10,2013-02-08 03:57:00,
2013-02-07 23:12:00,29.4,23.0,30.10,East,101,3.0,-999.0,76,-99.99,,,0.00,weatherlink.com 1.10,2013-02-08 04:12:00,
2013-02-07 23:27:00,30.6,23.0,30.10,SE,130,4.0,-999.0,72,-99.99,,,0.00,weatherlink.com 1.10,2013-02-08 04:27:00,
2013-02-07 23:42:00,30.9,22.0,30.09,ESE,123,4.0,-999.0,70,-99.99,,,0.00,weatherlink.com 1.10,2013-02-08 04:42:00,
2013-02-07 23:57:00,30.7,22.0,30.09,SE,146,2.0,-999.0,70,-99.99,,,0.00,weatherlink.com 1.10,2013-02-08 04:57:00,